Location: Muenchen
(48.1800°N, 11.5800°E)
Time: 22:45:44
(UTC+02:00)

ISS - All Passes

Search period start: 25 June 2017 00:00
Search period end: 05 July 2017 00:00
Orbit: 401 x 408 km, 51.6° (Epoch: 26 June)

Date Brightness Start Highest point End Pass type
(mag) Time Alt. Az. Time Alt. Az. Time Alt. Az.
25 Jun - 10:10:22 10° SW 10:13:32 48° SSE 10:16:44 10° ENE daylight
25 Jun - 11:46:49 10° W 11:50:03 52° NNW 11:53:18 10° ENE daylight
25 Jun - 13:23:39 10° WNW 13:26:52 47° N 13:30:05 10° E daylight
25 Jun - 15:00:12 10° WNW 15:03:28 64° SSW 15:06:45 10° SE daylight
25 Jun - 16:37:57 10° WSW 16:39:26 12° SW 16:40:54 10° SSW daylight
26 Jun - 09:18:35 10° SSW 09:21:29 29° SE 09:24:24 10° E daylight
26 Jun - 10:54:32 10° WSW 10:57:48 67° NNW 11:01:06 10° ENE daylight
26 Jun - 12:31:25 10° WNW 12:34:36 43° N 12:37:47 10° ENE daylight
26 Jun - 14:08:00 10° WNW 14:11:19 86° NNE 14:14:37 10° ESE daylight
26 Jun - 15:44:56 10° W 15:47:30 21° SW 15:50:02 10° S daylight
27 Jun - 08:27:10 10° S 08:29:29 18° SE 08:31:49 10° E daylight
27 Jun - 10:02:19 10° WSW 10:05:36 87° SSE 10:08:54 10° ENE daylight
27 Jun - 11:39:07 10° WNW 11:42:17 44° N 11:45:29 10° ENE daylight
27 Jun - 13:15:49 10° WNW 13:19:06 63° NNE 13:22:23 10° E daylight
27 Jun - 14:52:27 10° W 14:55:28 33° SW 14:58:28 10° SSE daylight
28 Jun - 07:36:44 10° SSE 07:37:33 11° SE 07:38:23 10° ESE daylight
28 Jun - 09:10:13 10° SW 09:13:26 57° SSE 09:16:41 10° ENE daylight
28 Jun - 10:46:47 10° W 10:50:00 49° N 10:53:14 10° ENE daylight
28 Jun - 12:23:36 10° WNW 12:26:50 50° N 12:30:03 10° E daylight
28 Jun - 14:00:08 10° WNW 14:03:22 54° SSW 14:06:36 10° SE daylight
28 Jun - 15:38:55 10° SW 15:39:14 10° SW 15:39:34 10° SW daylight
29 Jun - 08:18:18 10° SSW 08:21:19 35° SE 08:24:22 10° ENE daylight
29 Jun - 09:54:28 10° W 09:57:43 61° NNW 10:01:00 10° ENE daylight
29 Jun - 11:31:20 10° WNW 11:34:31 44° N 11:37:42 10° E daylight
29 Jun - 13:07:54 10° WNW 13:11:12 83° SSW 13:14:30 10° ESE daylight
29 Jun - 14:45:03 10° W 14:47:17 17° SW 14:49:32 10° S daylight
30 Jun - 07:26:41 10° SSW 07:29:15 22° SE 07:31:51 10° E daylight
30 Jun - 09:02:10 10° WSW 09:05:27 82° NNW 09:08:45 10° ENE daylight
30 Jun - 10:39:01 10° WNW 10:42:11 43° N 10:45:22 10° ENE daylight
30 Jun - 12:15:40 10° WNW 12:18:57 70° NNE 12:22:15 10° ESE daylight
30 Jun - 13:52:23 10° W 13:55:15 28° SW 13:58:07 10° SSE daylight
01 Jul - 06:35:39 10° SSE 06:37:16 13° SE 06:38:53 10° ESE daylight
01 Jul - 08:10:00 10° SW 08:13:14 67° SSE 08:16:31 10° ENE daylight
01 Jul - 09:46:39 10° W 09:49:51 46° N 09:53:03 10° ENE daylight
01 Jul - 11:23:25 10° WNW 11:26:39 53° NNE 11:29:54 10° E daylight
01 Jul - 12:59:58 10° WNW 13:03:09 45° SSW 13:06:19 10° SE daylight
02 Jul - 07:17:57 10° SW 07:21:04 41° SSE 07:24:11 10° ENE daylight
02 Jul - 08:54:17 10° W 08:57:31 55° NNW 09:00:46 10° ENE daylight
02 Jul - 10:31:08 10° WNW 10:34:20 46° N 10:37:31 10° E daylight
02 Jul - 12:07:40 10° WNW 12:10:57 72° SSW 12:14:14 10° ESE daylight
02 Jul - 13:45:06 10° WSW 13:46:58 14° SW 13:48:51 10° S daylight
03 Jul - 06:26:10 10° SSW 06:28:56 25° SE 06:31:43 10° E daylight
03 Jul - 08:01:55 10° WSW 08:05:12 73° NNW 08:08:30 10° ENE daylight
03 Jul - 09:38:48 10° WNW 09:41:58 43° N 09:45:08 10° ENE daylight
03 Jul - 11:15:24 10° WNW 11:18:42 78° NNE 11:22:00 10° ESE daylight
03 Jul - 12:52:13 10° W 12:54:56 23° SW 12:57:37 10° SSE daylight
04 Jul - 05:34:50 10° S 05:36:53 16° SE 05:38:56 10° E daylight
04 Jul - 07:09:39 10° WSW 07:12:56 78° SSE 07:16:12 10° ENE daylight
04 Jul - 08:46:24 10° W 08:49:35 45° N 08:52:46 10° ENE daylight
04 Jul - 10:23:07 10° WNW 10:26:23 58° NNE 10:29:38 10° E daylight
04 Jul - 11:59:42 10° WNW 12:02:48 38° SSW 12:05:53 10° SE daylight
